Location: Leedale
(52.5833°N, 114.4833°W)
Time: 07:54:49
(UTC+00:00)

BlueWalker 3 - Pass Details

Date: 06 August 2024
Orbit: 476 x 487 km, 53.2° (Epoch: 08 September)

Event Time Altitude Azimuth Distance (km) Brightness Sun altitude
Exits shadow 10:02:41 - 155° (SSE) 1,728 4.4 -14.7°
Reaches altitude 10° 10:03:01 10° 150° (SSE) 1,684 4.3 -14.6°
Maximum altitude 10:04:11 11° 132° (SE) 1,613 4.4 -14.5°
Drops below altitude 10° 10:05:21 10° 115° (ESE) 1,689 4.7 -14.4°
Sets 10:08:57 0° 79° (E) 2,579 6.3 -14.1°
